Location: Cañada de la Miga
(34.7595°N, 106.2317°W)
Time: 11:14:18
(UTC+00:00)

A-11 Canister half - Pass Details

Date: 04 December 2021
Orbit: 1516 x 1684 km, 47.2° (Epoch: 16 January)

Event Time Altitude Azimuth Distance (km) Brightness Sun altitude
Rises 13:00:18 0° 224° (SW) 4,706 11.3 -11.5°
Reaches altitude 10° 13:03:19 10° 223° (SW) 3,744 10.8 -10.9°
Maximum altitude 13:12:49 75° 140° (SE) 1,648 9.3 -9.1°
Drops below altitude 10° 13:22:42 10° 57° (ENE) 3,888 11.6 -7.2°
Sets 13:25:53 0° 56° (NE) 4,896 12.1 -6.6°
